Tracking 29059 objects as of 17-Jun-2024
HD Live streaming from Space Station
objects crossing your sky now

STARLINK-3986

Track STARLINK-3986 now!
10-day predictions
STARLINK-3986 is classified as:


NORAD ID: 52623
Int'l Code: 2022-052AB
Perigee: 546.0 km
Apogee: 547.7 km
Inclination: 53.2 °
Period: 95.4 minutes
Semi major axis: 6917 km
RCS: Unknown
Launch date: May 14, 2022
Source: United States (US)
Launch site: AIR FORCE EASTERN TEST RANGE (AFETR)
Your satellite tracking list
Your tracking list is empty




NASA's NSSDC Master Catalog

Two Line Element Set (TLE):
1 52623U 22052AB  24168.85988128  .00002543  00000-0  17780-3 0  9999
2 52623  53.2169 221.0290 0001266  92.7418 267.3719 15.08843846115759
Source of the keplerian elements: AFSPC